Regional Weather Roundup
Issued by NWS

Home | Current Version | Previous Version | Graphics & Text | Print | Product List | Glossary On
Versions: 1 2 3 4 5 6 7 8 9 10 11 12 13 14 15 16 17 18 19 20 21 22 23 24 25 26 27 28 29 30 31 32 33 34 35 36 37 38 39 40 41 42 43 44 45 46 47 48 49 50
000
ASUS45 KSLC 041810
RWRUT

UTAH REGIONAL WEATHER ROUNDUP
NATIONAL WEATHER SERVICE SALT LAKE CITY UT
1100 AM MST WED MAR 04 2015

UTZ001>011-023>025-041900-

NORTHERN UTAH

CITY           SKY/WX    TMP DP  RH WIND       PRES   REMARKS
BRIGHAM CITY   SUNNY     31  17  56 CALM      30.22R
HILL AFB       MOSUNNY   31  12  44 W6        30.19R WCI  26
LOGAN          SUNNY     30  17  58 CALM      30.21R
OGDEN          SUNNY     32  15  49 N5        30.20R WCI  27
PROVO AIRPORT  MOSUNNY   32  23  69 VRB6      30.21R WCI  26
SALT LAKE CITY MOSUNNY   34  25  69 VRB5      30.21R WCI  30
VERNAL         MOSUNNY   28  12  51 CALM      30.11R
WENDOVER       SUNNY     36  18  48 E8        30.22S WCI  29
HEBER CITY     SUNNY     27  14  59 CALM      30.16R
WEST JORDAN    SUNNY     32  19  59 NW5       30.21R WCI  27

$$

UTZ012>022-026-027-041900-

SOUTHERN/CENTRAL UTAH

CITY           SKY/WX    TMP DP  RH WIND       PRES   REMARKS
BLANDING       SUNNY     32  18  56 E8        30.12S WCI  24
BRYCE CANYON   SUNNY     23   9  55 N6        30.08S WCI  16
CEDAR CITY     SUNNY     26  16  65 SE5       30.14R WCI  20
DELTA          MOSUNNY   32  20  62 N5        30.21S WCI  27
HANKSVILLE     SUNNY     37  18  44 NW7       30.15F WCI  32
MILFORD        SUNNY     30  22  72 N7        30.19R WCI  23
MOAB/CYNLANDS  SUNNY     36  17  46 VRB3      30.11R
PRICE          SUNNY     32  13  45 NW12G20   30.08  WCI  23
ST GEORGE      CLEAR     43  21  42 W5        30.19S
KANAB          SUNNY     36  14  41 E3        30.16R

$$

REGIONAL REPORTS     COLORADO/ARIZONA

CITY           SKY/WX    TMP DP  RH WIND       PRES   REMARKS
CRAIG, CO      LGT SNOW  15  10  80 CALM      30.10R
GRAND JUNCTION SUNNY     33  14  45 NW6       30.10R WCI  28
RIFLE          CLOUDY    30   3  31 CALM      30.07F
MONTROSE       MOSUNNY   32  14  47 NE8       30.08S WCI  25
CORTEZ         SUNNY     33  19  56 NW9       30.03R WCI  25
PAGE, AZ       SUNNY     41  16  36 CALM      30.12R
GRAND CANYON   SUNNY     33  18  53 NE10      30.08R WCI  25
KINGMAN        SUNNY     46  27  47 N15       30.10S
FLAGSTAFF      SUNNY     31  17  56 NE9       30.05R WCI  23

$$

REGIONAL REPORTS    NEVADA/IDAHO/WYOMING

CITY           SKY/WX    TMP DP  RH WIND       PRES   REMARKS
LAS VEGAS, NV  SUNNY     51  14  22 N9        30.15R
ELY            SUNNY     26  10  50 CALM      30.18R
ELKO           SUNNY     35  15  44 S10       30.20S WCI  27
POCATELLO, ID  SUNNY     27  11  51 CALM      30.23S
EVANSTON, WY   SUNNY     22  12  65 SW13      30.08R WCI  10
ROCK SPRINGS   NOT AVBL

$$



USA.gov is the U.S. government's official web portal to all federal, state and local government web resources and services.